Flag for Germany Weather past 2 weeks in Melsungen, Hesse, Germany

Now
75 °F

Scattered clouds.


Feels Like: 77 °F
Forecast: 57 / 88 °F
Wind: 2 mph from East

Location: Fritzlar

Current Time: Aug 29, 2015 at 9:18:27 PM

Latest Report: Aug 29, 2015 at 8:00 PM


Visibility: 28 mi

Pressure: 30.11 "Hg

Humidity: 67%

Dew point: 64 °F

Location of MelsungenLocation

Historic Weather in Melsungen — Graph

°F

Melsungen temperature yesterday

Maximum temperature yesterday: 68 °F (at 6:00 PM)
Minimum temperature yesterday: 57 °F (at 5:00 AM)
Average temperature yesterday: 62 °F

Past Weeks' High & Low Weather Summary

 TemperatureHumidityPressure
High80 °F (Aug 14, 8:00 PM)99% (Aug 19, 8:00 AM)30.32 "Hg (Aug 19, 8:00 AM)
Low50 °F (Aug 21, 5:00 AM)29% (Aug 22, 4:00 PM)29.64 "Hg (Aug 24, 3:00 PM)
Average64 °F74%29.98 "Hg
* Reported Aug 14 8:00 PM — Aug 29 8:00 PM, Melsungen, Weather by CustomWeather, © 2015

Note: Actual official high and low records may vary slightly from our data, if they occured in-between our weather recording intervals... More about our weather records

Advertising

Melsungen weather history for previous 24 hours

 ConditionsComfort  
Time TempWeatherWind HumidityBarometerVisibility
8:00 PM
Sat, Aug 29
75 °FScattered clouds.2 mph67%30.11 "Hg28 mi
7:00 PM77 °FScattered clouds.2 mph61%30.12 "Hg28 mi
6:00 PM77 °FPartly sunny.2 mph60%30.13 "Hg28 mi
5:00 PM78 °FOvercast.2 mph60%30.15 "Hg28 mi
4:00 PM75 °FPartly sunny.3 mph64%30.16 "Hg28 mi
3:00 PM74 °FScattered clouds.3 mph61%30.17 "Hg25 mi
2:00 PM73 °FPartly sunny.2 mph58%30.20 "Hg22 mi
1:00 PM69 °FPartly sunny.2 mph63%30.22 "Hg16 mi
12:00 PM63 °FScattered clouds.2 mph88%30.24 "Hg12 mi
11:00 AM58 °FFog.N/A97%30.26 "Hg2 mi
10:00 AM55 °FFog.N/A99%30.26 "Hg1 mi
9:00 AM53 °FFog.1 mph99%30.27 "Hg0 mi
8:00 AM52 °FFog.2 mph98%30.26 "Hg0 mi
7:00 AM51 °FFog.1 mph99%30.26 "Hg0 mi
6:00 AM52 °FFog.2 mph98%30.25 "Hg0 mi
5:00 AM53 °FFog.2 mph98%30.24 "Hg0 mi
4:00 AM53 °FFog.1 mph98%30.23 "Hg1 mi
3:00 AM53 °FFog.2 mph98%30.23 "Hg0 mi
2:00 AM54 °FFog.3 mph94%30.22 "Hg16 mi
1:00 AM56 °FClear.2 mph94%30.21 "Hg16 mi
11:00 PM
Fri, Aug 28
58 °FPassing clouds.2 mph93%30.19 "Hg19 mi
10:00 PM60 °FPassing clouds.2 mph91%30.16 "Hg22 mi
9:00 PM62 °FPassing clouds.1 mph85%30.14 "Hg22 mi
Weather by CustomWeather, © 2015

See weather overviewHow to use our weather pages